SWA1535 KDAL-KFLL

Flight info

Callsign SWA1535
Flight time 2h 7m
Altitude 39000
Route LNDRE5 ZALEA REDFN Q105 BLVNS Y290 OCHHO VNECK TEEKY4
Aircraft B737/M-SDE2E3FGHIRWXY/LB1

Departure

Time 2026-05-03 22:10
Airport Dallas Love Field (KDAL)

Arrival

Time 2026-05-04 00:17
Airport Fort Lauderdale Hollywood International Airport (KFLL)
Time Latitude Longitude Altitude Speed Heading
2026-05-03 21:54 32.84566 -96.85154 483 ft 0 kts 359°
2026-05-03 22:02 32.84565 -96.85154 483 ft 2 kts 359°
2026-05-03 22:02 32.84549 -96.85154 476 ft 2 kts 359°
2026-05-03 22:03 32.84532 -96.85154 474 ft 2 kts 359°
2026-05-03 22:03 32.84516 -96.85153 479 ft 2 kts 360°
2026-05-03 22:03 32.84500 -96.85153 480 ft 2 kts 360°
2026-05-03 22:03 32.84484 -96.85153 480 ft 0 kts
2026-05-03 22:06 32.84489 -96.85156 477 ft 3 kts 335°
2026-05-03 22:06 32.84510 -96.85209 478 ft 12 kts 284°
2026-05-03 22:06 32.84555 -96.85320 483 ft 18 kts 324°
2026-05-03 22:07 32.84608 -96.85446 478 ft 19 kts 280°
2026-05-03 22:07 32.84690 -96.85578 481 ft 21 kts 317°
2026-05-03 22:07 32.84762 -96.85732 478 ft 23 kts 303°
2026-05-03 22:07 32.84884 -96.85877 482 ft 27 kts 317°
2026-05-03 22:08 32.85023 -96.86037 479 ft 29 kts 315°
2026-05-03 22:08 32.85144 -96.86178 479 ft 19 kts 315°
2026-05-03 22:08 32.85161 -96.86287 476 ft 14 kts 230°
2026-05-03 22:08 32.85079 -96.86278 480 ft 14 kts 135°
2026-05-03 22:09 32.84884 -96.86052 477 ft 74 kts 136°
2026-05-03 22:09 32.84350 -96.85437 479 ft 137 kts 135°
2026-05-03 22:09 32.83593 -96.84507 694 ft 167 kts 135°
2026-05-03 22:10 32.81920 -96.82312 1893 ft 193 kts 135°
2026-05-03 22:10 32.80926 -96.81088 2231 ft 218 kts 139°
2026-05-03 22:10 32.79797 -96.79768 2567 ft 239 kts 138°
2026-05-03 22:10 32.78559 -96.78281 2971 ft 261 kts 138°
2026-05-03 22:11 32.77291 -96.76723 3925 ft 261 kts 137°
2026-05-03 22:11 32.76032 -96.75162 4896 ft 263 kts 137°
2026-05-03 22:11 32.74724 -96.73614 5771 ft 268 kts 139°
2026-05-03 22:11 32.73379 -96.72073 6867 ft 271 kts 138°
2026-05-03 22:12 32.72010 -96.70504 7862 ft 278 kts 138°
2026-05-03 22:12 32.70599 -96.68877 8810 ft 287 kts 137°
2026-05-03 22:12 32.69186 -96.67156 9782 ft 296 kts 129°
2026-05-03 22:12 32.68324 -96.64934 10703 ft 302 kts 100°
2026-05-03 22:13 32.68184 -96.62448 11682 ft 305 kts 91°
2026-05-03 22:13 32.68163 -96.59888 12525 ft 313 kts 90°
2026-05-03 22:13 32.68136 -96.57269 13395 ft 321 kts 91°
2026-05-03 22:13 32.68093 -96.54580 14336 ft 324 kts 91°
2026-05-03 22:14 32.68121 -96.51898 15065 ft 331 kts 85°
2026-05-03 22:14 32.68335 -96.49178 15983 ft 333 kts 83°
2026-05-03 22:14 32.68597 -96.46413 16738 ft 341 kts 82°
2026-05-03 22:14 32.68861 -96.43553 17598 ft 346 kts 83°
2026-05-03 22:15 32.69104 -96.40692 18421 ft 352 kts 83°
2026-05-03 22:15 32.69337 -96.37778 19093 ft 358 kts 83°
2026-05-03 22:15 32.69568 -96.34807 19777 ft 364 kts 83°
2026-05-03 22:15 32.69717 -96.31780 20453 ft 372 kts 89°
2026-05-03 22:16 32.69585 -96.28679 21150 ft 378 kts 93°
2026-05-03 22:16 32.69338 -96.25561 21834 ft 384 kts 94°
2026-05-03 22:16 32.69063 -96.22377 22513 ft 391 kts 94°
2026-05-03 22:16 32.68797 -96.19142 23194 ft 396 kts 93°
2026-05-03 22:17 32.68549 -96.15908 23841 ft 402 kts 92°
2026-05-03 22:17 32.68308 -96.12545 24428 ft 407 kts 92°
2026-05-03 22:17 32.68079 -96.09226 24994 ft 411 kts 92°
2026-05-03 22:17 32.67848 -96.05814 25560 ft 417 kts 92°
2026-05-03 22:18 32.67616 -96.02363 26101 ft 422 kts 92°
2026-05-03 22:18 32.67380 -95.98867 26646 ft 428 kts 92°
2026-05-03 22:18 32.67140 -95.95335 27197 ft 432 kts 92°
2026-05-03 22:18 32.66896 -95.91757 27746 ft 438 kts 92°
2026-05-03 22:19 32.66647 -95.88133 28253 ft 443 kts 92°
2026-05-03 22:19 32.66395 -95.84470 28776 ft 448 kts 92°
2026-05-03 22:19 32.66138 -95.80764 29291 ft 453 kts 92°
2026-05-03 22:19 32.65878 -95.77030 29803 ft 457 kts 92°
2026-05-03 22:20 32.65614 -95.73253 30273 ft 462 kts 92°
2026-05-03 22:20 32.65346 -95.69435 30667 ft 467 kts 92°
2026-05-03 22:20 32.65074 -95.65582 31060 ft 471 kts 91°
2026-05-03 22:20 32.64798 -95.61692 31462 ft 475 kts 91°
2026-05-03 22:21 32.64520 -95.57775 31845 ft 479 kts 91°
2026-05-03 22:21 32.64237 -95.53825 32206 ft 483 kts 91°
2026-05-03 22:21 32.63951 -95.49843 32568 ft 486 kts 91°
2026-05-03 22:21 32.63663 -95.45841 32930 ft 489 kts 91°
2026-05-03 22:22 32.63369 -95.41793 33295 ft 493 kts 91°
2026-05-03 22:22 32.63074 -95.37740 33633 ft 496 kts 91°
2026-05-03 22:22 32.62775 -95.33646 33957 ft 499 kts 91°
2026-05-03 22:22 32.62571 -95.30873 34171 ft 501 kts 91°
2026-05-03 22:23 32.62268 -95.26751 34456 ft 503 kts 92°
2026-05-03 22:23 32.61961 -95.22605 34738 ft 506 kts 92°
2026-05-03 22:23 32.61651 -95.18442 35017 ft 508 kts 92°
2026-05-03 22:23 32.61237 -95.12894 35363 ft 511 kts 92°
2026-05-03 22:24 32.61024 -95.10057 35530 ft 512 kts 92°
2026-05-03 22:24 32.60706 -95.05839 35762 ft 515 kts 92°
2026-05-03 22:24 32.60386 -95.01608 35987 ft 517 kts 92°
2026-05-03 22:24 32.60062 -94.97348 36220 ft 519 kts 92°
2026-05-03 22:25 32.59736 -94.93073 36434 ft 521 kts 92°
2026-05-03 22:25 32.59407 -94.88786 36643 ft 523 kts 92°
2026-05-03 22:25 32.59076 -94.84482 36847 ft 525 kts 92°
2026-05-03 22:25 32.58742 -94.80162 37050 ft 527 kts 92°
2026-05-03 22:26 32.58264 -94.75841 37253 ft 531 kts 102°
2026-05-03 22:26 32.57217 -94.71643 37525 ft 531 kts 108°
2026-05-03 22:26 32.56000 -94.67522 37833 ft 530 kts 110°
2026-05-03 22:26 32.54743 -94.63413 38058 ft 531 kts 110°
2026-05-03 22:27 32.53490 -94.59293 38250 ft 532 kts 110°
2026-05-03 22:27 32.52258 -94.55149 38512 ft 532 kts 109°
2026-05-03 22:27 32.51055 -94.51007 38773 ft 532 kts 109°
2026-05-03 22:27 32.49871 -94.46862 38973 ft 531 kts 109°
2026-05-03 22:28 32.48693 -94.42707 39112 ft 533 kts 109°
2026-05-03 22:28 32.46316 -94.34307 39106 ft 542 kts 109°
2026-05-03 22:29 32.43908 -94.25846 39096 ft 543 kts 109°
2026-05-03 22:29 32.41483 -94.17368 39105 ft 543 kts 109°
2026-05-03 22:30 32.39052 -94.08904 39106 ft 543 kts 109°
2026-05-03 22:30 32.36621 -94.00460 39113 ft 542 kts 109°
2026-05-03 22:31 32.34188 -93.92032 39117 ft 541 kts 109°
2026-05-03 22:31 32.31753 -93.83621 39109 ft 540 kts 110°
2026-05-03 22:32 32.29319 -93.75236 39115 ft 539 kts 110°
2026-05-03 22:32 32.26883 -93.66866 39120 ft 539 kts 110°
2026-05-03 22:33 32.24442 -93.58502 39121 ft 538 kts 110°
2026-05-03 22:33 32.21980 -93.50094 39129 ft 537 kts 111°
2026-05-03 22:33 32.20463 -93.46097 39095 ft 532 kts 127°
2026-05-03 22:34 32.18252 -93.42643 39191 ft 524 kts 134°
2026-05-03 22:34 32.13648 -93.35936 39141 ft 526 kts 134°
2026-05-03 22:35 32.09097 -93.29163 39134 ft 527 kts 133°
2026-05-03 22:35 32.04591 -93.22342 39131 ft 528 kts 133°
2026-05-03 22:36 32.00083 -93.15498 39131 ft 529 kts 133°
2026-05-03 22:36 31.95569 -93.08661 39135 ft 529 kts 133°
2026-05-03 22:37 31.91044 -93.01832 39135 ft 529 kts 133°
2026-05-03 22:37 31.86536 -92.95044 39135 ft 529 kts 133°
2026-05-03 22:38 31.81970 -92.88181 39136 ft 530 kts 134°
2026-05-03 22:38 31.77427 -92.81363 39139 ft 530 kts 134°
2026-05-03 22:39 31.72881 -92.74551 39144 ft 530 kts 134°
2026-05-03 22:39 31.68328 -92.67743 39151 ft 530 kts 134°
2026-05-03 22:40 31.63778 -92.60951 39146 ft 529 kts 134°
2026-05-03 22:40 31.59224 -92.54165 39141 ft 529 kts 134°
2026-05-03 22:41 31.54644 -92.47353 39141 ft 528 kts 135°
2026-05-03 22:41 31.50093 -92.40594 39132 ft 528 kts 135°
2026-05-03 22:42 31.45537 -92.33842 39122 ft 527 kts 135°
2026-05-03 22:42 31.40987 -92.27109 39131 ft 527 kts 135°
2026-05-03 22:43 31.36442 -92.20396 39124 ft 527 kts 135°
2026-05-03 22:43 31.31885 -92.13677 39128 ft 526 kts 135°
2026-05-03 22:44 31.27336 -92.06981 39142 ft 526 kts 135°
2026-05-03 22:44 31.22779 -92.00285 39145 ft 526 kts 136°
2026-05-03 22:45 31.18224 -91.93604 39143 ft 526 kts 136°
2026-05-03 22:45 31.13665 -91.86928 39146 ft 526 kts 136°
2026-05-03 22:46 31.09106 -91.80262 39144 ft 526 kts 136°
2026-05-03 22:46 31.04541 -91.73601 39138 ft 526 kts 136°
2026-05-03 22:47 30.99971 -91.66943 39139 ft 526 kts 136°
2026-05-03 22:47 30.95396 -91.60290 39138 ft 526 kts 137°
2026-05-03 22:48 30.90821 -91.53648 39141 ft 526 kts 137°
2026-05-03 22:48 30.86244 -91.47014 39140 ft 526 kts 137°
2026-05-03 22:49 30.81660 -91.40380 39132 ft 526 kts 137°
2026-05-03 22:49 30.77073 -91.33754 39137 ft 525 kts 137°
2026-05-03 22:50 30.72488 -91.27142 39135 ft 525 kts 137°
2026-05-03 22:50 30.67904 -91.20542 39151 ft 525 kts 137°
2026-05-03 22:51 30.63312 -91.13942 39146 ft 525 kts 138°
2026-05-03 22:51 30.58722 -91.07356 39146 ft 524 kts 138°
2026-05-03 22:52 30.54139 -91.00790 39147 ft 524 kts 138°
2026-05-03 22:52 30.49551 -90.94230 39157 ft 524 kts 138°
2026-05-03 22:53 30.44959 -90.87674 39149 ft 523 kts 139°
2026-05-03 22:53 30.40365 -90.81125 39151 ft 523 kts 139°
2026-05-03 22:54 30.35774 -90.74593 39153 ft 523 kts 139°
2026-05-03 22:54 30.31180 -90.68065 39151 ft 523 kts 139°
2026-05-03 22:55 30.26583 -90.61545 39153 ft 523 kts 139°
2026-05-03 22:55 30.21981 -90.55028 39155 ft 522 kts 139°
2026-05-03 22:56 30.17382 -90.48527 39150 ft 522 kts 139°
2026-05-03 22:56 30.12782 -90.42035 39154 ft 522 kts 139°
2026-05-03 22:57 30.08183 -90.35553 39151 ft 522 kts 140°
2026-05-03 22:57 30.03578 -90.29075 39152 ft 521 kts 140°
2026-05-03 22:58 29.98978 -90.22615 39148 ft 521 kts 140°
2026-05-03 22:58 29.94375 -90.16159 39153 ft 521 kts 140°
2026-05-03 22:59 29.89771 -90.09714 39145 ft 521 kts 140°
2026-05-03 22:59 29.85944 -90.04364 39151 ft 520 kts 140°
2026-05-03 23:00 29.81340 -89.97936 39146 ft 520 kts 140°
2026-05-03 23:00 29.76735 -89.91519 39143 ft 520 kts 140°
2026-05-03 23:01 29.72121 -89.85099 39150 ft 520 kts 140°
2026-05-03 23:01 29.67510 -89.78692 39149 ft 520 kts 140°
2026-05-03 23:02 29.62898 -89.72294 39145 ft 520 kts 140°
2026-05-03 23:02 29.58284 -89.65906 39148 ft 520 kts 140°
2026-05-03 23:03 29.53665 -89.59521 39136 ft 519 kts 140°
2026-05-03 23:03 29.49041 -89.53142 39148 ft 521 kts 140°
2026-05-03 23:04 29.44363 -89.46693 39160 ft 523 kts 140°
2026-05-03 23:04 29.39699 -89.40272 39149 ft 524 kts 140°
2026-05-03 23:05 29.35056 -89.33891 39156 ft 525 kts 140°
2026-05-03 23:05 29.30375 -89.27467 39144 ft 525 kts 140°
2026-05-03 23:06 29.25694 -89.21053 39144 ft 524 kts 140°
2026-05-03 23:06 29.21019 -89.14659 39142 ft 524 kts 140°
2026-05-03 23:07 29.16345 -89.08276 39148 ft 523 kts 140°
2026-05-03 23:07 29.11672 -89.01905 39147 ft 522 kts 140°
2026-05-03 23:08 29.07001 -88.95548 39145 ft 522 kts 140°
2026-05-03 23:08 29.02336 -88.89206 39144 ft 521 kts 140°
2026-05-03 23:09 28.97667 -88.82870 39149 ft 521 kts 140°
2026-05-03 23:09 28.92994 -88.76537 39146 ft 521 kts 140°
2026-05-03 23:10 28.88324 -88.70217 39146 ft 521 kts 140°
2026-05-03 23:10 28.83634 -88.63910 39140 ft 521 kts 140°
2026-05-03 23:11 28.78930 -88.57612 39146 ft 522 kts 140°
2026-05-03 23:11 28.74219 -88.51310 39140 ft 523 kts 140°
2026-05-03 23:12 28.69500 -88.45000 39146 ft 523 kts 140°
2026-05-03 23:12 28.64774 -88.38689 39139 ft 524 kts 140°
2026-05-03 23:13 28.60042 -88.32381 39144 ft 524 kts 140°
2026-05-03 23:13 28.55299 -88.26067 39137 ft 525 kts 140°
2026-05-03 23:14 28.50545 -88.19749 39139 ft 526 kts 140°
2026-05-03 23:14 28.45787 -88.13432 39130 ft 526 kts 140°
2026-05-03 23:15 28.41030 -88.07116 39130 ft 528 kts 138°
2026-05-03 23:15 28.38870 -88.03690 39126 ft 539 kts 128°
2026-05-03 23:15 28.37104 -87.99893 39130 ft 548 kts 119°
2026-05-03 23:16 28.34661 -87.91624 39131 ft 554 kts 112°
2026-05-03 23:16 28.32390 -87.83325 39140 ft 554 kts 112°
2026-05-03 23:17 28.30031 -87.74996 39127 ft 554 kts 113°
2026-05-03 23:17 28.27623 -87.66701 39124 ft 554 kts 113°
2026-05-03 23:18 28.25200 -87.58410 39133 ft 554 kts 113°
2026-05-03 23:18 28.22778 -87.50120 39137 ft 553 kts 114°
2026-05-03 23:19 28.20358 -87.41843 39119 ft 553 kts 114°
2026-05-03 23:19 28.17936 -87.33578 39127 ft 552 kts 114°
2026-05-03 23:20 28.15508 -87.25316 39128 ft 552 kts 114°
2026-05-03 23:20 28.13082 -87.17083 39122 ft 551 kts 114°
2026-05-03 23:21 28.10652 -87.08854 39126 ft 550 kts 114°
2026-05-03 23:21 28.08221 -87.00642 39120 ft 549 kts 114°
2026-05-03 23:22 28.04572 -86.88357 39120 ft 548 kts 114°
2026-05-03 23:22 28.02161 -86.80259 39119 ft 548 kts 114°
2026-05-03 23:23 27.99729 -86.72060 39120 ft 548 kts 114°
2026-05-03 23:23 27.97353 -86.63835 39117 ft 547 kts 114°
2026-05-03 23:24 27.94996 -86.55647 39115 ft 547 kts 114°
2026-05-03 23:24 27.92632 -86.47487 39113 ft 546 kts 114°
2026-05-03 23:25 27.90256 -86.39329 39113 ft 546 kts 114°
2026-05-03 23:25 27.87875 -86.31181 39111 ft 545 kts 114°
2026-05-03 23:26 27.85495 -86.23053 39114 ft 545 kts 114°
2026-05-03 23:26 27.83106 -86.14910 39222 ft 549 kts 116°
2026-05-03 23:27 27.80678 -86.06673 39146 ft 556 kts 116°
2026-05-03 23:27 27.78238 -85.98390 39119 ft 555 kts 116°
2026-05-03 23:28 27.75794 -85.90114 39099 ft 555 kts 116°
2026-05-03 23:28 27.73350 -85.81860 39099 ft 554 kts 116°
2026-05-03 23:29 27.70900 -85.73612 39100 ft 553 kts 117°
2026-05-03 23:29 27.68466 -85.65440 39099 ft 553 kts 117°
2026-05-03 23:30 27.65997 -85.57169 39102 ft 552 kts 117°
2026-05-03 23:30 27.63558 -85.49017 39099 ft 552 kts 117°
2026-05-03 23:31 27.61100 -85.40817 39098 ft 552 kts 117°
2026-05-03 23:31 27.58728 -85.32565 39089 ft 559 kts 111°
2026-05-03 23:32 27.57284 -85.23889 39097 ft 565 kts 106°
2026-05-03 23:32 27.55867 -85.15198 39091 ft 564 kts 108°
2026-05-03 23:33 27.54334 -85.06530 39092 ft 564 kts 108°
2026-05-03 23:33 27.52798 -84.97857 39095 ft 565 kts 108°
2026-05-03 23:34 27.51269 -84.89174 39098 ft 565 kts 108°
2026-05-03 23:34 27.49734 -84.80483 39093 ft 565 kts 108°
2026-05-03 23:35 27.48192 -84.71802 39086 ft 565 kts 108°
2026-05-03 23:35 27.46645 -84.63127 39083 ft 565 kts 108°
2026-05-03 23:36 27.45101 -84.54499 39084 ft 564 kts 109°
2026-05-03 23:36 27.43542 -84.45816 39086 ft 563 kts 109°
2026-05-03 23:37 27.42087 -84.37144 39072 ft 567 kts 102°
2026-05-03 23:37 27.41750 -84.28219 39085 ft 572 kts 96°
2026-05-03 23:38 27.41639 -84.19271 39090 ft 571 kts 96°
2026-05-03 23:38 27.41455 -84.10354 39077 ft 570 kts 97°
2026-05-03 23:39 27.41201 -84.01451 39081 ft 569 kts 97°
2026-05-03 23:39 27.40928 -83.92556 39078 ft 568 kts 97°
2026-05-03 23:40 27.40656 -83.83674 39077 ft 568 kts 97°
2026-05-03 23:40 27.40384 -83.74800 39076 ft 567 kts 97°
2026-05-03 23:41 27.40109 -83.65934 39075 ft 567 kts 97°
2026-05-03 23:41 27.39827 -83.57078 39074 ft 566 kts 97°
2026-05-03 23:42 27.39539 -83.48219 39070 ft 566 kts 97°
2026-05-03 23:42 27.39246 -83.39384 39071 ft 566 kts 97°
2026-05-03 23:43 27.38998 -83.32036 39069 ft 566 kts 97°
2026-05-03 23:43 27.38695 -83.23186 39066 ft 565 kts 97°
2026-05-03 23:44 27.38261 -83.12932 39055 ft 561 kts 104°
2026-05-03 23:44 27.37441 -83.08691 38805 ft 553 kts 115°
2026-05-03 23:44 27.36677 -83.05906 38318 ft 553 kts 116°
2026-05-03 23:45 27.35463 -83.01820 37601 ft 550 kts 117°
2026-05-03 23:45 27.34248 -82.97739 36922 ft 548 kts 116°
2026-05-03 23:45 27.33085 -82.93654 36210 ft 548 kts 115°
2026-05-03 23:45 27.31974 -82.89565 35462 ft 548 kts 114°
2026-05-03 23:46 27.30884 -82.85445 34630 ft 550 kts 114°
2026-05-03 23:46 27.29795 -82.81327 33721 ft 550 kts 114°
2026-05-03 23:46 27.28644 -82.77226 32833 ft 544 kts 118°
2026-05-03 23:46 27.27142 -82.73456 32758 ft 519 kts 124°
2026-05-03 23:47 27.25533 -82.69864 32427 ft 508 kts 126°
2026-05-03 23:47 27.23891 -82.66343 32245 ft 513 kts 126°
2026-05-03 23:47 27.22237 -82.62808 31992 ft 521 kts 125°
2026-05-03 23:47 27.20576 -82.59195 31735 ft 521 kts 124°
2026-05-03 23:48 27.18929 -82.55534 31474 ft 515 kts 124°
2026-05-03 23:48 27.17357 -82.51989 31236 ft 512 kts 124°
2026-05-03 23:48 27.15762 -82.48372 30984 ft 508 kts 123°
2026-05-03 23:48 27.14197 -82.44826 30755 ft 506 kts 123°
2026-05-03 23:49 27.12638 -82.41298 30523 ft 504 kts 123°
2026-05-03 23:49 27.11077 -82.37777 30286 ft 503 kts 123°
2026-05-03 23:49 27.09520 -82.34273 30040 ft 502 kts 123°
2026-05-03 23:49 27.07970 -82.30789 29761 ft 501 kts 123°
2026-05-03 23:50 27.06406 -82.27276 29505 ft 500 kts 123°
2026-05-03 23:50 27.04857 -82.23798 29263 ft 498 kts 123°
2026-05-03 23:50 27.03311 -82.20330 29017 ft 496 kts 123°
2026-05-03 23:50 27.01771 -82.16877 28792 ft 494 kts 123°
2026-05-03 23:51 27.00236 -82.13439 28561 ft 492 kts 123°
2026-05-03 23:51 26.98728 -82.10062 28337 ft 490 kts 123°
2026-05-03 23:51 26.97207 -82.06661 28097 ft 487 kts 123°
2026-05-03 23:51 26.95533 -82.03390 27835 ft 475 kts 135°
2026-05-03 23:52 26.93299 -82.00724 27719 ft 459 kts 144°
2026-05-03 23:52 26.91039 -81.98193 27456 ft 460 kts 143°
2026-05-03 23:52 26.88823 -81.95644 27214 ft 452 kts 142°
2026-05-03 23:52 26.86689 -81.93134 26976 ft 437 kts 142°
2026-05-03 23:53 26.84668 -81.90737 26776 ft 421 kts 142°
2026-05-03 23:53 26.82694 -81.88394 26569 ft 405 kts 143°
2026-05-03 23:53 26.80761 -81.86112 26386 ft 392 kts 143°
2026-05-03 23:53 26.78931 -81.83952 26184 ft 375 kts 143°
2026-05-03 23:54 26.77189 -81.81896 25986 ft 359 kts 144°
2026-05-03 23:54 26.75469 -81.79885 25624 ft 350 kts 144°
2026-05-03 23:54 26.73796 -81.77940 25298 ft 342 kts 145°
2026-05-03 23:54 26.72159 -81.76044 24979 ft 339 kts 145°
2026-05-03 23:55 26.70539 -81.74172 24654 ft 340 kts 144°
2026-05-03 23:55 26.68843 -81.72217 24315 ft 353 kts 144°
2026-05-03 23:55 26.67113 -81.70216 23939 ft 364 kts 143°
2026-05-03 23:55 26.65343 -81.68160 23547 ft 368 kts 143°
2026-05-03 23:56 26.63569 -81.66094 23109 ft 367 kts 143°
2026-05-03 23:56 26.61867 -81.63957 22663 ft 370 kts 137°
2026-05-03 23:56 26.60326 -81.61704 22251 ft 370 kts 134°
2026-05-03 23:56 26.58818 -81.59380 21818 ft 366 kts 134°
2026-05-03 23:57 26.57348 -81.57101 21389 ft 357 kts 134°
2026-05-03 23:57 26.55907 -81.54890 20985 ft 348 kts 135°
2026-05-03 23:57 26.54486 -81.52741 20595 ft 340 kts 135°
2026-05-03 23:57 26.53090 -81.50649 20213 ft 332 kts 135°
2026-05-03 23:58 26.51720 -81.48608 19846 ft 325 kts 135°
2026-05-03 23:58 26.50374 -81.46609 19483 ft 319 kts 135°
2026-05-03 23:58 26.49053 -81.44652 19124 ft 313 kts 135°
2026-05-03 23:58 26.47753 -81.42727 18774 ft 308 kts 135°
2026-05-03 23:59 26.46462 -81.40820 18427 ft 309 kts 135°
2026-05-03 23:59 26.45163 -81.38901 18027 ft 310 kts 134°
2026-05-03 23:59 26.43865 -81.36981 17647 ft 310 kts 134°
2026-05-03 23:59 26.42563 -81.35055 17275 ft 310 kts 134°
2026-05-04 00:00 26.41268 -81.33140 16917 ft 309 kts 134°
2026-05-04 00:00 26.39937 -81.31272 16555 ft 307 kts 136°
2026-05-04 00:00 26.38566 -81.29451 16204 ft 306 kts 137°
2026-05-04 00:00 26.37195 -81.27644 15852 ft 305 kts 137°
2026-05-04 00:01 26.35825 -81.25834 15501 ft 305 kts 136°
2026-05-04 00:01 26.34464 -81.24026 15144 ft 304 kts 136°
2026-05-04 00:01 26.33108 -81.22219 14804 ft 304 kts 136°
2026-05-04 00:01 26.31756 -81.20413 14465 ft 303 kts 136°
2026-05-04 00:02 26.30420 -81.18627 14172 ft 299 kts 136°
2026-05-04 00:02 26.29079 -81.16839 13731 ft 296 kts 135°
2026-05-04 00:02 26.27748 -81.15074 13287 ft 297 kts 135°
2026-05-04 00:02 26.26414 -81.13319 12954 ft 296 kts 135°
2026-05-04 00:03 26.25091 -81.11581 12610 ft 294 kts 135°
2026-05-04 00:03 26.23773 -81.09848 12284 ft 293 kts 135°
2026-05-04 00:03 26.22460 -81.08121 11957 ft 291 kts 135°
2026-05-04 00:03 26.21154 -81.06404 11632 ft 289 kts 135°
2026-05-04 00:04 26.19860 -81.04703 11315 ft 288 kts 135°
2026-05-04 00:04 26.18568 -81.03005 10992 ft 287 kts 135°
2026-05-04 00:04 26.17283 -81.01317 10662 ft 285 kts 134°
2026-05-04 00:04 26.16003 -80.99636 10358 ft 284 kts 134°
2026-05-04 00:05 26.14809 -80.97878 10018 ft 288 kts 119°
2026-05-04 00:05 26.14286 -80.95725 9686 ft 290 kts 100°
2026-05-04 00:05 26.13956 -80.93513 9298 ft 290 kts 101°
2026-05-04 00:05 26.13603 -80.91308 8929 ft 290 kts 102°
2026-05-04 00:06 26.13251 -80.89161 8587 ft 289 kts 102°
2026-05-04 00:06 26.12894 -80.86997 8241 ft 288 kts 102°
2026-05-04 00:06 26.12531 -80.84805 7875 ft 287 kts 102°
2026-05-04 00:06 26.12173 -80.82646 7521 ft 279 kts 102°
2026-05-04 00:07 26.11823 -80.80545 7175 ft 273 kts 102°
2026-05-04 00:07 26.11483 -80.78506 6959 ft 262 kts 102°
2026-05-04 00:07 26.11150 -80.76523 6835 ft 261 kts 102°
2026-05-04 00:07 26.10814 -80.74525 6700 ft 264 kts 102°
2026-05-04 00:08 26.10474 -80.72508 6569 ft 267 kts 102°
2026-05-04 00:08 26.10134 -80.70488 6417 ft 265 kts 102°
2026-05-04 00:08 26.09795 -80.68476 6265 ft 263 kts 102°
2026-05-04 00:08 26.09460 -80.66486 6118 ft 261 kts 102°
2026-05-04 00:09 26.09127 -80.64512 5963 ft 259 kts 102°
2026-05-04 00:09 26.08797 -80.62551 5825 ft 257 kts 102°
2026-05-04 00:09 26.08468 -80.60603 5696 ft 255 kts 102°
2026-05-04 00:09 26.08141 -80.58669 5555 ft 254 kts 102°
2026-05-04 00:10 26.07815 -80.56740 5428 ft 253 kts 102°
2026-05-04 00:10 26.07491 -80.54827 5288 ft 252 kts 102°
2026-05-04 00:10 26.07167 -80.52917 5167 ft 251 kts 102°
2026-05-04 00:10 26.06897 -80.51002 5033 ft 251 kts 95°
2026-05-04 00:11 26.06827 -80.49051 4877 ft 252 kts 91°
2026-05-04 00:11 26.06817 -80.47109 4712 ft 253 kts 90°
2026-05-04 00:11 26.06810 -80.45153 4542 ft 254 kts 90°
2026-05-04 00:11 26.06797 -80.43198 4356 ft 249 kts 91°
2026-05-04 00:12 26.06781 -80.41308 4275 ft 237 kts 91°
2026-05-04 00:12 26.06765 -80.39497 4009 ft 233 kts 91°
2026-05-04 00:12 26.06750 -80.37699 3733 ft 233 kts 91°
2026-05-04 00:12 26.06736 -80.35915 3458 ft 228 kts 91°
2026-05-04 00:13 26.06722 -80.34185 3171 ft 221 kts 91°
2026-05-04 00:13 26.06709 -80.32507 2880 ft 212 kts 90°
2026-05-04 00:13 26.06697 -80.30932 2600 ft 196 kts 90°
2026-05-04 00:13 26.06685 -80.29456 2361 ft 187 kts 90°
2026-05-04 00:14 26.06674 -80.28013 2126 ft 188 kts 90°
2026-05-04 00:14 26.06664 -80.26557 1877 ft 187 kts 90°
2026-05-04 00:14 26.06653 -80.25151 1631 ft 175 kts 89°
2026-05-04 00:14 26.06644 -80.23851 1407 ft 161 kts 89°
2026-05-04 00:15 26.06636 -80.22697 1222 ft 143 kts 89°
2026-05-04 00:15 26.06628 -80.21647 1034 ft 131 kts 89°
2026-05-04 00:15 26.06621 -80.20638 875 ft 131 kts 88°
2026-05-04 00:15 26.06615 -80.19625 701 ft 131 kts 89°
2026-05-04 00:16 26.06606 -80.18600 550 ft 130 kts 88°
2026-05-04 00:16 26.06601 -80.17604 374 ft 132 kts 88°
2026-05-04 00:16 26.06590 -80.16580 227 ft 130 kts 87°
2026-05-04 00:16 26.06599 -80.15575 38 ft 128 kts 88°
2026-05-04 00:17 26.06591 -80.14676 43 ft 91 kts 93°
2026-05-04 00:17 26.06581 -80.14195 54 ft 41 kts 90°
2026-05-04 00:17 26.06582 -80.13931 61 ft 30 kts 85°
2026-05-04 00:17 26.06620 -80.13795 63 ft 7 kts 54°
2026-05-04 00:18 26.06652 -80.13752 62 ft 7 kts 49°
2026-05-04 00:18 26.06690 -80.13720 65 ft 7 kts 21°
2026-05-04 00:18 26.06734 -80.13730 61 ft 7 kts 310°
2026-05-04 00:18 26.06742 -80.13763 64 ft 0 kts 269°
2026-05-04 00:19 26.06742 -80.13764 64 ft 0 kts 269°
2026-05-04 00:19 26.06742 -80.13768 64 ft 1 kts 269°
2026-05-04 00:19 26.06742 -80.13782 64 ft 5 kts 268°
2026-05-04 00:20 26.06740 -80.13851 63 ft 13 kts 269°
2026-05-04 00:20 26.06738 -80.13970 58 ft 17 kts 265°
2026-05-04 00:20 26.06700 -80.14087 54 ft 16 kts 248°
2026-05-04 00:20 26.06686 -80.14206 51 ft 15 kts 270°
2026-05-04 00:21 26.06688 -80.14324 48 ft 15 kts 272°
2026-05-04 00:21 26.06690 -80.14438 44 ft 16 kts 270°
2026-05-04 00:21 26.06691 -80.14571 41 ft 19 kts 270°
2026-05-04 00:21 26.06691 -80.14717 40 ft 18 kts 270°
2026-05-04 00:22 26.06692 -80.14852 39 ft 16 kts 270°
2026-05-04 00:22 26.06693 -80.14968 38 ft 15 kts 270°
2026-05-04 00:22 26.06696 -80.15085 36 ft 14 kts 274°
2026-05-04 00:22 26.06772 -80.15132 32 ft 14 kts 359°
2026-05-04 00:23 26.06866 -80.15132 32 ft 13 kts
2026-05-04 00:23 26.06958 -80.15132 30 ft 14 kts
2026-05-04 00:23 26.07058 -80.15115 26 ft 16 kts 31°
2026-05-04 00:23 26.07145 -80.15021 21 ft 18 kts 46°
2026-05-04 00:24 26.07248 -80.14951 18 ft 18 kts
2026-05-04 00:24 26.07360 -80.14914 16 ft 18 kts 43°
2026-05-04 00:24 26.07458 -80.14807 15 ft 21 kts 46°
2026-05-04 00:24 26.07489 -80.14709 17 ft 21 kts 91°
2026-05-04 00:25 26.07487 -80.14550 19 ft 20 kts 90°
2026-05-04 00:25 26.07489 -80.14396 17 ft 20 kts 89°
2026-05-04 00:25 26.07489 -80.14247 17 ft 19 kts 90°
2026-05-04 00:25 26.07484 -80.14103 17 ft 18 kts 92°
2026-05-04 00:26 26.07467 -80.13967 15 ft 17 kts 130°
2026-05-04 00:26 26.07362 -80.13955 16 ft 10 kts 161°
2026-05-04 00:26 26.07360 -80.13949 16 ft 1 kts 97°
2026-05-04 00:26 26.07376 -80.13923 15 ft 1 kts 88°
2026-05-04 00:27 26.07364 -80.13903 16 ft 4 kts 121°
2026-05-04 00:27 26.07363 -80.13900 16 ft 0 kts 121°